Regional Weather Roundup
Issued by NWS

Home | Current Version | Previous Version | Graphics & Text | Print | Product List | Glossary Off
Versions: 1 2 3 4 5 6 7 8 9 10 11 12 13 14 15 16 17 18 19 20 21 22 23 24 25 26 27 28 29 30 31 32 33 34 35 36 37 38 39 40 41 42 43 44 45 46 47 48 49 50

000
ASUS45 KBOU 032207
RWRCO

WEATHER ROUNDUP FOR COLORADO
NATIONAL WEATHER SERVICE DENVER/BOULDER CO
400 PM MDT WED JUN 03 2015

NOTE: "FAIR" INDICATES FEW OR NO CLOUDS BELOW 12000 FEET WITH NO
SIGNIFICANT WEATHER AND/OR OBSTRUCTIONS TO VISIBILITY.

COZ001>005-013-030-031-032300-
...NORTHWEST COLORADO...

CITY           SKY/WX    TMP DP  RH WIND       PRES   REMARKS
CRAIG          MOSUNNY   80  33  18 SW9       29.90F
HAYDEN         MOSUNNY   75  32  20 NE6       29.94F
MEEKER         MOSUNNY   81  26  13 SW12      29.92F
MOUNT WERNER   NOT AVBL
STEAMBOAT SPGS MOSUNNY   76  31  19 SW6       29.95F
WALDEN         MOSUNNY   73  18  12 S9G20     30.04F
$$

COZ006>008-011-032300-
...WEST CENTRAL VALLEYS...

CITY           SKY/WX    TMP DP  RH WIND       PRES   REMARKS
GRAND JUNCTION SUNNY     87  18   8 S21       29.81F
MONTROSE       SUNNY     86  19   8 SW16      29.90F
EAGLE          MOSUNNY   88  30  12 W9G22     29.94F
RIFLE          MOSUNNY   85  21   9 SW14G28   29.86F
DELTA          SUNNY     90  16   6 SW14      29.86F
NUCLA          SUNNY     82  18   9 SW16      29.98F
$$

COZ017>023-064>068-032300-
...SOUTHWEST COLORADO...

CITY           SKY/WX    TMP DP  RH WIND       PRES   REMARKS
DURANGO        SUNNY     77  12   8 SW6G20    30.05F
CORTEZ         SUNNY     83  16   8 S18G24    29.99F
PAGOSA SPRINGS SUNNY     76   5   6 SW12G22   30.13F
TELLURIDE      MOSUNNY   69  16  13 SE10G26   30.18S
WOLF CREEK PAS NOT AVBL
$$

COZ009-010-012-014-032>034-037-058>063-032300-
...CENTRAL COLORADO...

CITY           SKY/WX    TMP DP  RH WIND       PRES   REMARKS
ASPEN          PTSUNNY   77  21  12 MISG      30.01F
BUENA VISTA    MOSUNNY   76  17  10 S17G30    30.05F
COPPER MTN     PTSUNNY   57   9  14 SE23      30.33F
BERTHOUD PASS  PTSUNNY   37  32  81 E9G29     30.39S
COTTONWOOD PAS NOT AVBL
GUNNISON         N/A    N/A N/A N/A W9        30.04F
KREMMLING      MOSUNNY   77  14   9 E5        29.99F
LEADVILLE      PTSUNNY   65  16  15 S17G30    30.17F
MONARCH PASS   MOSUNNY   55  18  22 SW15G36   30.46F
SALIDA         MOSUNNY   80  16   9 S18G25    30.10F
SUNLIGHT       MOSUNNY   63  21  20 CALM      30.27F
WILKERSON PASS MOSUNNY   61  28  29 SW7       30.35F
$$

COZ069>075-032300-
...SAN LUIS VALLEY/SANGRE DE CRISTO MOUNTAINS...

CITY           SKY/WX    TMP DP  RH WIND       PRES   REMARKS
ALAMOSA        SUNNY     79  12   8 SW23G29   30.07F
LA VETA PASS   MOSUNNY  -26 -40  46 MISG      30.30S
SAGUACHE       SUNNY     77  23  13 S16G25    30.08F
$$

COZ035-036-038>040-032300-
...NORTHERN COLORADO FRONT RANGE...

CITY           SKY/WX    TMP DP  RH WIND       PRES   REMARKS
DENVER INTL AP CLOUDY    72  57  59 SE12      29.99F
DMNS CITY PARK   N/A     73  55  53 E9G18     29.98F
AURORA         PTSUNNY   72  56  55 E14       30.01F
FRONT RANGE AP PTSUNNY   73  57  56 SE16      30.01F
ERIE MUNI ARPT MOSUNNY   74  54  50 E6        29.98F
BOULDER MUN AP MOSUNNY   72  52  49 CALM      29.99F
CENTENNIAL     CLOUDY    74  56  53 E16G22    30.01F
BROOMFIELD     PTSUNNY   73  54  49 S5        30.01F
FORT COLLINS   MOSUNNY   73  55  53 SE10      29.98F
LONGMONT       MOSUNNY   75  54  48 SE6       29.99F
$$

COZ041-046-047-076>085-087-088-032300-
...PIKES PEAK/PALMER DIVIDE AND SOUTHERN FOOTHILLS...

CITY           SKY/WX    TMP DP  RH WIND       PRES   REMARKS
COLO. SPRINGS  PTSUNNY   73  52  47 SE20G25   30.04F
A. F. ACADEMY  PTSUNNY   73  52  46 E17G23    30.03F
ELLICOTT       PTSUNNY  N/A N/A N/A SE15G24   30.03F
FALCON         PTSUNNY   69  49  49 SE12G21   30.09F
FORT CARSON    NOT AVBL
LIMON          PTSUNNY   71  56  58 E15G23    30.02F
MONUMENT HILL  PTSUNNY   64  52  63 MISG      30.08F
TRINIDAD       SUNNY     79  53  40 NE14      29.98F
$$

COZ042>045-048>051-090-091-032300-
...NORTHEAST COLORADO...

CITY           SKY/WX    TMP DP  RH WIND       PRES   REMARKS
GREELEY ARPT   PTSUNNY   75  57  53 SE13G23   29.97F
AKRON          MOSUNNY   74  55  51 E15G22    29.98F
BURLINGTON     CLOUDY    75  57  53 E16       29.96F
WRAY           CLOUDY    78  56  47 E9        29.96S
STERLING       MOSUNNY   77  55  47 SE12      29.94F
HOLYOKE        MOSUNNY   79  54  41 E13       29.96F
FORT MORGAN    MOSUNNY   77  55  45 E13       29.97F
$$

COZ086-089-092>099-032300-
...SOUTHEAST COLORADO...

CITY           SKY/WX    TMP DP  RH WIND       PRES   REMARKS
PUEBLO         MOSUNNY   78  56  46 E15G22    29.94F
LA JUNTA       SUNNY     79  59  50 MISG      29.92F
LAMAR          MOSUNNY   80  61  52 NE15      29.88F
SPRINGFIELD      N/A     81  60  48 N14       29.91F
$$



USA.gov is the U.S. government's official web portal to all federal, state and local government web resources and services.